Location: Izdebno
(52.6670°N, 16.2170°E)
Time: 11:11:39
(UTC+01:00)

Vanguard 3 - All Passes

Search period start: 28 January 2023 00:00
Search period end: 07 February 2023 00:00
Orbit: 509 x 3253 km, 33.4° (Epoch: 27 January)

Date Brightness Start Highest point End Pass type
(mag) Time Alt. Az. Time Alt. Az. Time Alt. Az.
28 Jan - 00:42:34 10° WSW 00:58:00 34° SSW 01:13:45 10° SE visible
28 Jan - 02:59:13 10° WSW 03:10:32 19° SW 03:21:06 10° S visible
28 Jan - 19:06:52 10° S 19:15:40 22° SE 19:27:07 10° E visible
28 Jan - 21:14:52 10° SW 21:27:33 36° SSE 21:44:04 10° ESE visible
28 Jan - 23:26:12 10° WSW 23:41:06 38° S 23:58:00 10° SE visible
29 Jan - 01:40:25 10° W 01:54:25 27° SSW 02:08:14 10° SSE visible
29 Jan - 17:56:30 10° SSE 18:00:48 12° SE 18:05:42 10° ESE visible
29 Jan - 20:00:47 10° SSW 20:11:24 30° SSE 20:25:53 10° ESE visible
29 Jan - 22:10:39 10° WSW 22:24:12 39° S 22:41:16 10° ESE visible
30 Jan - 00:23:12 10° WSW 00:37:49 33° SSW 00:53:35 10° SSE visible
30 Jan - 02:40:00 10° WSW 02:50:21 17° SW 03:00:26 10° S visible
30 Jan - 18:47:47 10° S 18:55:56 22° SE 19:06:49 10° ESE visible
30 Jan - 20:55:51 10° SW 21:07:38 36° SSE 21:23:42 10° ESE visible
30 Jan - 23:07:01 10° WSW 23:20:59 37° S 23:37:44 10° SE visible
31 Jan - 01:21:05 10° WSW 01:34:13 25° SSW 01:47:48 10° SSE night (unlit)
31 Jan - 17:37:14 10° SSE 17:41:10 12° SE 17:45:41 10° ESE visible
31 Jan - 19:41:50 10° SSW 19:51:37 30° SSE 20:05:27 10° ESE visible
31 Jan - 21:51:37 10° WSW 22:04:12 37° S 22:20:52 10° ESE visible
01 Feb - 00:04:00 10° WSW 00:17:39 31° SSW 00:33:11 10° SSE visible
01 Feb - 02:21:11 10° WSW 02:30:10 15° SW 02:39:14 10° SSW night (unlit)
01 Feb - 18:28:51 10° S 18:36:18 21° SE 18:46:27 10° ESE visible
01 Feb - 20:36:57 10° SW 20:47:48 35° SSE 21:03:12 10° ESE visible
01 Feb - 22:47:58 10° WSW 23:00:55 35° SSW 23:17:14 10° SE visible
02 Feb - 01:02:01 10° WSW 01:14:02 22° SSW 01:27:02 10° S night (unlit)
02 Feb - 17:18:14 10° SSE 17:21:37 12° SE 17:25:32 10° ESE visible
02 Feb - 19:23:01 10° SSW 19:31:58 29° SSE 19:44:55 10° ESE visible
02 Feb - 21:32:44 10° WSW 21:44:19 36° S 22:00:16 10° SE visible
02 Feb - 23:44:58 10° WSW 23:57:32 28° SSW 00:12:28 10° SSE visible
03 Feb - 02:02:57 10° WSW 02:10:00 13° SW 02:17:17 10° SSW night (unlit)
03 Feb - 18:10:02 10° S 18:16:46 21° SE 18:26:02 10° ESE visible
03 Feb - 20:18:10 10° SW 20:28:05 33° S 20:42:34 10° ESE visible
03 Feb - 22:29:04 10° WSW 22:40:57 32° SSW 22:56:30 10° SE visible
04 Feb - 00:43:11 10° WSW 00:53:54 20° SW 01:05:51 10° S visible
04 Feb - 16:59:28 10° SSE 17:02:11 11° SE 17:05:16 10° ESE daylight
04 Feb - 19:04:18 10° SSW 19:12:24 28° SSE 19:24:20 10° ESE visible
04 Feb - 21:13:57 10° WSW 21:24:31 33° S 21:39:32 10° SE visible
04 Feb - 23:26:07 10° WSW 23:37:31 26° SSW 23:51:28 10° SSE visible
05 Feb - 01:46:08 10° SW 01:49:53 11° SW 01:53:45 10° SSW night (unlit)
05 Feb - 17:51:21 10° S 17:57:20 20° SSE 18:05:36 10° ESE visible
05 Feb - 19:59:30 10° SW 20:08:28 31° S 20:21:51 10° ESE visible
05 Feb - 22:10:18 10° WSW 22:21:04 30° SSW 22:35:34 10° SE visible
06 Feb - 00:24:43 10° WSW 00:33:50 17° SW 00:44:13 10° S visible
06 Feb - 16:41:00 10° SSE 16:42:50 11° SE 16:44:51 10° SE daylight
06 Feb - 18:45:41 10° SSW 18:52:58 26° SSE 19:03:44 10° ESE visible
06 Feb - 20:55:17 10° WSW 21:04:50 31° S 21:18:39 10° SE visible
06 Feb - 23:07:30 10° WSW 23:17:35 23° SSW 23:30:10 10° SSE visible
